Location: Newark
(50.4348°N, 30.5552°E)
Time: 10:40:06
(UTC+00:00)

Tiros 1 despin weight - Pass Details

Date: 30 January 2020
Orbit: 594 x 642 km, 48.2° (Epoch: 22 February)

Event Time Altitude Azimuth Distance (km) Brightness Sun altitude
Rises 12:45:48 0° 280° (W) 2,893 ? 13.8°
Reaches altitude 10° 12:48:21 10° 268° (W) 1,994 ? 13.6°
Maximum altitude 12:52:14 27° 211° (SSW) 1,196 ? 13.2°
Drops below altitude 10° 12:56:09 10° 153° (SSE) 2,010 ? 12.8°
Sets 12:58:44 0° 141° (SE) 2,921 ? 12.5°
